AirNav   Everest Fuels
 
 1451 users online  

0P2 Shoestring Aviation Airfield
Stewartstown, Pennsylvania, USA

GOING TO STEWARTSTOWN?


FAA INFORMATION EFFECTIVE 08 SEPTEMBER 2022

Location

FAA Identifier: 0P2
Lat/Long: 39-47-46.5150N 076-38-47.0150W
39-47.775250N 076-38.783583W
39.7962542,-76.6463931
(estimated)
Elevation: 1000 ft. / 305 m (estimated)
Variation: 10W (1985)
From city: 3 miles NW of STEWARTSTOWN, PA
Time zone: UTC -4 (UTC -5 during Standard Time)
Zip code: 17363

Airport Operations

Airport use: Open to the public
Activation date: 07/1963
Control tower: no
ARTCC: WASHINGTON CENTER
FSS: WILLIAMSPORT FLIGHT SERVICE STATION
NOTAMs facility: IPT (NOTAM-D service available)
Attendance: IREG
Wind indicator: yes
Segmented circle: no

Airport Communications

CTAF: 122.9
WX ASOS at THV (13 nm NW): 119.275 (717-792-5529)

Nearby radio navigation aids

VOR radial/distance  VOR name  Freq  Var
EMIr048/23.7WESTMINSTER VORTAC117.9008W
LRPr229/25.4LANCASTER VOR/DME117.3009W
HARr157/36.0HARRISBURG VORTAC112.5010W
BALr012/37.5BALTIMORE VORTAC115.1011W

 
NDB name  Hdg/Dist  Freq  Var  ID
ELLICOTT022/31.137111WFND ..-. -. -..
BELLGROVE196/38.632810WBZJ -... --.. .---

Airport Services

Parking: tiedowns
Airframe service: MAJOR
Powerplant service: MAJOR

Runway Information

Runway 6U/24U

Dimensions: 1000 x 100 ft. / 305 x 30 m
Surface: turf, in good condition
RUNWAY 6U  RUNWAY 24U
Latitude: 39-47.725333N39-47.825167N
Longitude: 076-38.868500W076-38.698667W
Elevation: 993.0 ft.995.0 ft.
Traffic pattern: leftright
Runway heading: 063 magnetic, 053 true243 magnetic, 233 true
Obstructions: 49 ft. tree, 396 ft. from runway, 49 ft. left of centerline, 8:1 slope to clear
RWY 6U APCH RATIO 15:1 TO 320 FT DTHR.
3 ft. other, 10 ft. from runway, 3:1 slope to clear
RWY 24U APCH RATIO 76:1 TO DTHR.

Runway 15/33

Dimensions: 1000 x 100 ft. / 305 x 30 m
Surface: turf, in good condition
Runway edge markings: RWY 06U/24U & RWY 15/33 MKD WITH ORANGE PATIO BLOCKS.
RUNWAY 15  RUNWAY 33
Traffic pattern: rightleft
Displaced threshold: no500 ft.
Markings: NSTD
Obstructions: none46 ft. tree, 137 ft. from runway, 53 ft. right of centerline, 2:1 slope to clear
RWY 33 APCH RATIO 14:1 TO DTHR.

Airport Ownership and Management from official FAA records

Ownership: Privately-owned
Owner: THOMAS E. HOPKINS
14388 EBAUGH RD
STEWARTSTOWN, PA 17363
Phone 717-235-6724
Manager: THOMAS E HOPKINS
14388 EBAUGH RD
STEWARTSTOWN, PA 17363
Phone 717-235-6724

Airport Operational Statistics

Aircraft based on the field: 22
Single engine airplanes: 11
Ultralights: 11
    
Aircraft operations: avg 25/week *
77% local general aviation
23% transient general aviation
<1% military
* for 12-month period ending 17 November 2021

Additional Remarks

EXTSV ULTRALIGHT ACT ON & INVOF ARPT.
MAJOR AIRFRAME & POWERPLANT REPAIR FOR LIGHT SPORT ACFT ONLY.
DSPLCD THLDS MARKED WITH THREE WHITE PAVER EACH SIDE.
RWY 15/33 & 06/24 USED FOR ULTRALIGHT OPS.
RWY 24U DSPLCD 183 FT.
FOR CD CTC POTOMAC APCH AT 866-429-5882.

Instrument Procedures

There are no published instrument procedures at 0P2.

Some nearby airports with instrument procedures:

KTHV - York Airport (13 nm NW)
N71 - Donegal Springs Airpark (18 nm N)
KDMW - Carroll County Regional Airport/Jack B Poage Field (20 nm SW)
KMDT - Harrisburg International Airport (24 nm N)
0W3 - Harford County Airport (25 nm SE)
 
Loc | Ops | Rwys | IFR | FBO | Links
Com | Nav | Svcs | Stats | Notes
Area around 0P2 (Shoestring Aviation Airfield)
 
Road maps at: MapQuest Bing Google
 
Aerial photo
WARNING: Photo may not be current or correct
Aerial photo of 0P2 (Shoestring Aviation Airfield)
Do you have a better or more recent aerial photo of Shoestring Aviation Airfield that you would like to share? If so, please send us your photo.

 
Sectional chart

 
Airport distance calculator
Flying to Shoestring Aviation Airfield? Find the distance to fly.

From to 0P2

Sunrise and sunset
Times for 05-Oct-2022
 Local
(UTC-4)
 Zulu
(UTC)
Morning civil twilight06:4110:41
Sunrise07:0811:08
Sunset18:4222:42
Evening civil twilight19:0923:09

Current date and time
Zulu (UTC)  05-Oct-2022 21:29:54
Local (UTC-4)  05-Oct-2022 17:29:54
 
METAR
KTHV 
13nm NW 
052053Z AUTO 34005KT 10SM BKN033 OVC100 17/11 A2997 RMK AO2 SLP152 60000 T01720111 55004
KDMW 
20nm SW 
052105Z AUTO 35007KT 10SM SCT028 OVC080 18/13 A2997 RMK AO2 LTG DSNT E
KMDT 
25nm N 
052056Z 30006KT 10SM BKN034 OVC090 17/12 A2997 RMK AO2 SLP148 T01670117 55003
KLNS 
25nm NE 
052053Z 34008KT 10SM OVC095 17/13 A2996 RMK AO2 SLP145 60002 T01720128 55000
TAF
KMDT 
25nm N 
051914Z 0519/0618 32009KT P6SM -SHRA SCT025 OVC035 FM052000 32008KT P6SM BKN045 FM060200 32004KT P6SM SKC
KLNS 
25nm NE 
051914Z 0519/0618 33009KT P6SM -SHRA SCT020 SCT050 BKN100 FM060200 VRB02KT P6SM SKC FM061100 00000KT 6SM BR VCFG SKC FM061300 31005KT P6SM SKC
KMTN 
31nm S 
051739Z 0518/0618 34011G19KT 6SM -DZ OVC015 FM052000 34009KT P6SM BKN025 FM052300 34005KT P6SM BKN035 FM060300 00000KT P6SM SCT070 FM061400 28005KT P6SM FEW250
NOTAMs
Click for the latest NOTAMs
NOTAMs are issued by the DoD/FAA and will open in a separate window not controlled by AirNav.

 

 
 

Would you like to see your business listed on this page?

 If your business provides an interesting product or service to pilots, flight crews, aircraft, or users of the Shoestring Aviation Airfield, you should consider listing it here.  To start the listing process, click on the button below
 
Add a business
 

Other Pages about Shoestring Aviation Airfield

shoestringairport.com
WeatherLink Network
 
Update a link
 
Copyright © AirNav, LLC. All rights reserved. Privacy Policy  Contact